Regional Weather Roundup
Issued by NWS

Home | Current Version | Previous Version | Text Only | Print | Product List | Glossary Off
Versions: 1 2 3 4 5 6 7 8 9 10 11 12 13 14 15 16 17 18 19 20 21 22 23 24 25 26 27 28 29 30 31 32 33 34 35 36 37 38 39 40 41 42 43 44 45 46 47 48 49 50

000
ASUS43 KLMK 241202
RWRKY
KENTUCKY REGIONAL WEATHER ROUNDUP
NATIONAL WEATHER SERVICE LOUISVILLE KY
800 AM EDT FRI MAR 24 2017

NOTE "FAIR" INDICATES FEW OR NO CLOUDS BELOW 12,000 FEET
WITH NO SIGNIFICANT WEATHER AND/OR OBSTRUCTIONS TO VISIBILITY.

KYZ001>023-026-027-061>063-070>075-241300-
WESTERN AND SOUTH CENTRAL KENTUCKY

CITY           SKY/WX    TMP DP  RH WIND       PRES   REMARKS
PADUCAH        CLEAR     63  54  72 S13G22    30.09R
HENDERSON      CLEAR     59  50  72 S13       30.10R
OWENSBORO      CLEAR     57  50  77 S14       30.15R
HOPKINSVILLE   CLEAR     60  52  74 S9        30.17R
BOWLING GREEN  CLEAR     59  46  62 S14       30.22R
GLASGOW        NOT AVBL
$$

KYZ024-025-028>034-038-045-046-053-241300-
NORTH CENTRAL KENTUCKY

CITY           SKY/WX    TMP DP  RH WIND       PRES   REMARKS
LOUISVILLE/SDF PTCLDY    58  41  53 S12       30.19R
LOUISVILLE/LOU CLEAR     58  42  55 S9        30.20R
FORT KNOX      CLEAR     56  44  65 S12       30.18R
$$

KYZ035>037-039>044-047>052-055>060-089>105-241300-
NORTHEAST KENTUCKY

CITY           SKY/WX    TMP DP  RH WIND       PRES   REMARKS
LEXINGTON      CLEAR     54  40  59 S14       30.22R
COVINGTON      MOCLDY    51  41  68 S9        30.17R
FRANKFORT      MOCLDY    55  40  56 S9        30.20R
$$

KYZ054-064>069-076>088-106>120-241300-
SOUTHEAST KENTUCKY

CITY           SKY/WX    TMP DP  RH WIND       PRES   REMARKS
JACKSON        CLEAR     53  39  59 SW5       30.28R
LONDON         PTCLDY    55  38  52 S7        30.30R
SOMERSET       NOT AVBL
MIDDLESBORO    CLEAR     48  36  64 CALM      30.36R
MONTICELLO     SUNNY     56  42  59 SE12G17   30.29R
$$





USA.gov is the U.S. government's official web portal to all federal, state and local government web resources and services.